Wind_Speed
47 47 48 48 49 49 48 48 48 47 47 48 50 50 50 50 50 51 52 52 54 55 55 56 58 59 60 61 61 61 61 61 61 61 61 61 61 61
48 47 47 49 49 50 50 50 49 49 49 49 50 51 51 52 52 52 52 52 53 54 55 57 58 60 60 60 60 61 61 62 62 63 62 63 63 63
48 48 48 49 49 49 50 50 51 51 51 50 51 52 53 54 53 53 53 53 53 55 56 57 58 58 58 59 59 60 60 61 62 63 64 63 64 64
49 48 48 49 49 50 50 51 51 51 51 51 52 52 53 53 53 53 53 53 54 55 56 56 57 58 58 59 59 59 60 61 62 62 63 63 64 64
48 48 48 49 49 50 50 51 51 51 51 51 52 53 53 53 54 54 54 54 54 55 56 57 57 59 59 59 60 60 60 61 62 62 63 64 64 65
48 48 49 49 48 48 49 50 50 50 50 51 51 52 52 53 53 54 54 55 55 55 55 56 57 58 59 60 60 61 61 61 62 62 62 63 63 63
48 48 48 48 48 48 48 49 49 50 50 51 51 52 53 53 53 53 54 55 55 55 55 55 56 57 58 59 60 61 60 60 60 61 61 61 61 62
47 47 47 47 47 48 48 49 50 50 51 52 52 52 52 53 53 53 53 54 53 54 54 54 55 56 56 57 58 58 58 58 58 59 59 59 60 60
46 47 47 47 48 48 48 49 50 51 52 52 52 52 52 52 52 52 52 52 53 53 53 53 54 55 56 55 55 55 56 57 57 58 58 58 59 59
46 47 47 47 47 47 47 48 50 51 52 52 53 52 52 52 52 52 51 51 51 52 53 53 54 54 54 53 53 53 54 55 56 56 56 56 57 58
46 46 47 47 47 48 48 49 49 50 51 52 52 52 52 52 52 52 52 52 51 52 53 52 51 51 51 51 51 51 52 53 54 54 55 56 56 57
46 46 47 47 47 48 49 49 50 50 51 51 52 52 52 52 52 53 53 52 52 51 51 51 50 49 49 49 50 51 51 51 52 52 54 54 55 55
46 46 47 47 48 48 49 49 50 50 49 49 50 51 51 52 52 53 53 52 51 50 50 49 48 48 48 48 49 50 49 49 50 50 51 52 53 53
46 46 46 47 47 48 48 48 49 49 48 48 49 50 50 51 51 52 52 51 50 49 48 48 47 47 47 47 47 48 48 47 47 48 48 49 50 51
46 46 46 46 46 47 47 47 47 48 48 48 48 49 49 49 49 50 50 49 48 48 47 46 47 47 46 46 45 46 47 46 45 46 46 46 47 48
46 46 45 45 46 46 47 47 48 48 48 48 47 47 48 48 48 48 48 47 46 46 46 45 46 46 45 44 44 44 45 45 44 45 45 45 45 46
45 45 45 45 46 46 46 47 47 47 47 47 47 46 46 46 45 45 45 45 45 45 45 46 46 45 45 44 44 44 44 44 45 44 44 43 43 44
44 45 45 45 46 46 46 46 46 46 46 46 46 45 44 43 43 43 43 43 43 43 43 43 44 44 43 43 43 43 43 44 44 44 43 42 42 43
44 44 44 45 45 45 45 44 44 44 44 43 43 43 42 42 41 41 40 41 41 42 42 42 42 43 43 42 42 43 43 43 43 43 43 42 41 41
44 44 43 43 43 43 43 42 42 42 42 42 41 41 40 40 40 39 39 39 40 41 41 41 42 42 42 42 41 41 43 43 42 41 41 41 40 39
43 43 42 42 41 41 41 40 40 40 40 40 40 39 39 39 39 39 39 39 39 39 39 40 41 42 42 41 40 40 40 41 41 40 40 39 38 37
42 41 41 41 40 40 40 39 39 39 39 39 39 39 39 39 38 38 38 38 38 38 38 39 40 40 41 40 39 39 38 38 39 39 39 38 36 35
40 40 40 40 40 39 39 39 38 38 38 38 38 38 38 38 38 38 38 37 37 37 37 37 38 38 39 39 38 37 37 36 36 36 37 37 36 34
Wind_Direction
271 270 269 269 268 267 268 267 266 266 266 267 268 269 269 269 269 269 269 267 266 265 264 264 264 263 263 264 264 264 263 263 264 264 263 262 261 261
272 271 270 270 269 268 267 268 268 267 267 268 268 269 270 270 270 270 269 268 267 266 265 266 266 265 265 265 264 264 264 264 265 265 264 263 262 261
273 272 271 270 269 268 269 269 269 269 268 269 270 270 271 271 271 271 270 269 269 268 268 268 267 267 266 266 265 265 265 264 265 265 264 263 263 262
274 273 271 270 269 269 270 270 270 270 270 270 271 272 272 271 271 271 271 271 270 269 268 268 267 267 266 266 266 266 266 265 265 265 264 264 264 263
275 274 272 271 270 271 271 271 271 272 271 271 272 272 272 271 271 271 271 271 270 269 268 267 267 267 266 266 267 267 266 266 266 265 264 264 264 264
275 274 273 272 272 271 272 272 272 273 273 273 273 272 271 272 271 272 272 271 270 270 269 269 268 268 267 267 267 268 268 267 266 266 265 264 264 264
276 276 274 274 274 273 273 273 273 273 275 275 274 273 273 273 273 273 273 271 271 271 270 270 269 268 268 268 269 269 268 267 266 266 265 265 265 265
277 276 275 276 276 275 274 274 274 274 275 275 274 274 275 274 273 273 273 272 272 272 272 272 271 269 269 269 270 269 268 267 266 266 266 266 266 265
277 276 276 276 276 276 276 275 275 275 276 276 276 276 276 275 274 275 275 274 274 274 274 274 273 271 270 270 269 268 268 267 267 266 266 266 266 266
277 277 277 277 277 277 276 277 277 277 278 278 277 277 277 276 276 276 276 276 276 276 276 276 274 272 270 269 268 269 269 269 267 266 266 266 266 266
278 278 277 278 278 277 277 278 279 280 280 279 278 277 277 277 277 277 277 276 276 277 277 277 274 272 271 269 269 270 270 269 268 268 267 267 266 266
279 279 279 278 278 278 279 279 280 280 281 280 278 277 277 277 277 277 277 277 277 276 276 276 274 272 271 270 270 270 271 270 270 270 269 268 267 267
280 280 280 279 279 279 280 280 280 280 281 280 279 278 278 277 277 277 277 276 276 275 275 274 274 273 272 271 270 271 272 272 271 271 271 269 269 268
280 281 280 280 280 280 281 281 281 280 281 281 280 280 279 278 277 277 277 276 275 275 274 274 274 273 273 273 272 271 272 271 271 271 271 271 270 270
281 281 281 281 281 281 281 281 281 281 282 282 282 281 279 278 277 276 276 275 274 274 273 273 273 274 274 274 274 272 271 270 271 271 271 272 272 271
282 282 281 281 281 282 282 282 282 282 282 282 282 281 281 279 278 277 275 274 272 272 273 274 274 274 274 274 274 273 272 271 270 270 270 271 272 272
282 282 282 282 282 282 282 282 282 282 281 282 282 281 280 280 278 277 275 273 272 271 272 273 274 274 274 274 274 273 273 272 271 271 270 271 271 271
282 282 282 283 282 282 282 282 282 282 282 282 282 281 280 279 278 277 275 273 271 271 271 271 272 272 273 274 275 275 274 274 273 272 271 271 270 271
283 283 284 284 283 283 283 283 283 283 282 282 282 281 279 278 277 276 274 273 272 272 272 273 273 273 273 274 274 275 275 275 274 273 272 273 272 270
284 284 284 284 284 284 284 284 283 283 283 282 281 280 279 278 277 275 275 274 274 273 273 273 274 275 275 275 275 275 276 276 275 274 273 273 273 271
284 284 284 284 284 285 285 285 284 283 283 282 281 281 280 278 276 276 275 275 275 274 273 273 273 274 276 276 276 276 276 275 275 274 274 273 272 270
283 283 284 284 285 285 285 285 284 283 283 283 282 282 281 278 277 277 277 276 276 275 274 274 274 274 275 275 276 276 275 275 275 275 275 275 273 270
283 283 284 284 285 285 285 285 285 284 283 283 283 283 281 279 278 278 278 278 277 276 275 275 275 276 276 275 275 276 275 274 274 273 273 273 273 271
Height
5629 5630 5630 5630 5630 5630 5630 5631 5632 5633 5633 5632 5632 5631 5631 5631 5631 5631 5631 5631 5631 5632 5633 5634 5635 5637 5638 5639 5641 5642 5643 5644 5646 5646 5648 5650 5651 5653
5616 5616 5616 5616 5616 5616 5616 5616 5617 5618 5619 5619 5618 5617 5616 5616 5616 5615 5615 5615 5615 5616 5616 5617 5618 5619 5620 5621 5622 5623 5624 5626 5627 5628 5629 5630 5632 5634
5603 5603 5602 5602 5602 5602 5602 5602 5602 5603 5604 5604 5602 5602 5601 5600 5600 5599 5599 5599 5599 5599 5599 5600 5601 5601 5602 5603 5604 5605 5606 5607 5608 5609 5610 5611 5612 5615
5589 5589 5588 5588 5588 5588 5588 5588 5587 5587 5588 5588 5587 5586 5585 5584 5584 5584 5583 5583 5583 5583 5583 5583 5583 5584 5584 5585 5585 5586 5588 5588 5589 5590 5591 5593 5594 5594
5575 5575 5574 5574 5574 5574 5573 5573 5573 5572 5572 5572 5572 5570 5569 5568 5568 5568 5567 5567 5566 5566 5566 5566 5566 5566 5567 5567 5567 5568 5569 5571 5571 5572 5571 5572 5573 5574
5562 5561 5560 5560 5560 5560 5559 5559 5558 5558 5557 5556 5556 5555 5554 5552 5552 5551 5551 5550 5550 5549 5549 5549 5549 5549 5549 5549 5550 5550 5550 5550 5551 5551 5552 5553 5553 5554
5548 5547 5547 5546 5546 5546 5545 5545 5544 5543 5542 5541 5540 5539 5538 5537 5536 5535 5535 5534 5534 5533 5533 5533 5532 5533 5532 5531 5531 5531 5531 5531 5531 5532 5532 5533 5534 5535
5536 5534 5534 5533 5532 5532 5531 5530 5529 5528 5527 5526 5525 5524 5522 5521 5520 5518 5518 5519 5519 5518 5517 5517 5515 5515 5514 5514 5513 5513 5512 5513 5513 5514 5514 5515 5515 5516
5523 5522 5521 5520 5519 5518 5517 5515 5514 5513 5512 5510 5509 5507 5506 5505 5505 5504 5503 5502 5502 5500 5500 5501 5499 5498 5497 5496 5496 5495 5495 5495 5495 5496 5496 5497 5497 5498
5510 5509 5508 5506 5505 5504 5503 5501 5500 5498 5496 5495 5494 5493 5490 5489 5488 5488 5487 5487 5487 5484 5483 5484 5483 5482 5481 5479 5479 5478 5478 5477 5477 5477 5478 5478 5479 5479
5497 5495 5494 5493 5491 5490 5489 5488 5486 5483 5481 5479 5478 5476 5475 5474 5473 5472 5472 5471 5471 5470 5467 5467 5466 5466 5465 5464 5462 5461 5461 5460 5460 5460 5460 5460 5460 5460
5484 5482 5481 5479 5477 5475 5474 5473 5471 5469 5467 5465 5463 5461 5460 5459 5458 5457 5456 5455 5455 5455 5452 5451 5450 5449 5451 5450 5447 5446 5445 5444 5444 5443 5443 5442 5442 5442
5470 5469 5467 5465 5463 5461 5459 5458 5456 5454 5452 5450 5449 5447 5445 5444 5442 5441 5440 5439 5439 5438 5437 5436 5435 5433 5433 5434 5434 5431 5429 5428 5427 5427 5426 5425 5425 5424
5457 5455 5453 5451 5449 5447 5445 5443 5441 5440 5438 5436 5434 5432 5431 5429 5427 5425 5424 5423 5422 5422 5421 5420 5420 5418 5418 5418 5418 5417 5415 5413 5412 5411 5410 5410 5409 5408
5443 5441 5439 5437 5435 5433 5431 5429 5427 5425 5424 5422 5420 5418 5416 5414 5412 5411 5409 5408 5408 5407 5406 5405 5404 5403 5402 5402 5402 5401 5400 5399 5397 5396 5396 5395 5394 5393
5429 5427 5425 5423 5421 5419 5417 5415 5413 5411 5409 5407 5405 5403 5401 5399 5397 5396 5395 5394 5394 5393 5391 5390 5389 5388 5388 5387 5387 5386 5385 5384 5383 5381 5381 5381 5380 5379
5415 5413 5411 5409 5407 5405 5403 5400 5398 5396 5394 5392 5390 5388 5387 5385 5383 5381 5380 5379 5379 5379 5378 5377 5375 5374 5373 5373 5373 5372 5371 5370 5368 5367 5366 5367 5367 5365
5401 5400 5398 5395 5393 5391 5389 5386 5384 5382 5380 5378 5376 5374 5372 5371 5369 5367 5366 5365 5365 5365 5364 5363 5362 5361 5361 5360 5359 5358 5357 5356 5355 5353 5352 5352 5353 5352
5388 5386 5384 5382 5379 5377 5374 5372 5370 5368 5366 5364 5362 5360 5358 5357 5355 5354 5353 5352 5352 5351 5351 5349 5348 5347 5347 5348 5348 5344 5343 5342 5341 5340 5339 5338 5339 5338
5374 5372 5370 5368 5365 5363 5361 5359 5356 5354 5352 5350 5348 5346 5345 5343 5342 5341 5340 5339 5338 5338 5338 5337 5335 5334 5333 5334 5334 5333 5329 5327 5327 5326 5325 5324 5324 5325
5360 5358 5356 5354 5352 5350 5347 5345 5343 5341 5339 5337 5335 5334 5332 5331 5330 5328 5327 5326 5325 5325 5325 5324 5322 5321 5320 5319 5320 5320 5317 5314 5313 5312 5312 5311 5312 5312
5347 5345 5343 5341 5339 5336 5334 5332 5330 5328 5326 5325 5323 5321 5319 5318 5317 5316 5315 5314 5313 5312 5311 5311 5309 5308 5307 5306 5306 5306 5305 5302 5300 5299 5298 5298 5298 5300
5333 5331 5329 5328 5326 5324 5322 5320 5318 5316 5314 5312 5310 5308 5306 5305 5304 5303 5302 5301 5300 5299 5298 5298 5297 5295 5294 5294 5293 5292 5291 5290 5288 5288 5287 5286 5286 5287